Weather in Springfield

United States     37°11′22″N   93°16′41″W
temp.,
°C
wind,
m/s
gust,
m/s
humid.,
%
clouds,
%
prec.,
mm/h
press.,
hPa
HPBL,
m
16 may, sun
sun1601:00+14sse3998100 1.9 1018204
04:00+14sse2398100 3.0 101861
07:00+14sse489720 3.1 1018170
10:00+20s57859 0.3 1018470
13:00+22ssw578597 4.1 1017864
16:00+23ssw3777100 1.7 1014874
19:00+20s3685100 3.4 1014112
22:00+16wnw2496100 2.8 101594
17 may, mon
mon1701:00+15ene3698100 3.3 1014178
04:00+16se4998100 0.3 1012300
07:00+16s51199100 6.6 1012649
10:00+17s4998100 3.1 1013543
13:00+18wsw3493100 4.8 1012494
16:00+20w4688100 3.1 1012752
19:00+20w2491100 4.9 1012295
22:00+16ene119687 0.1 101315
18 may, tue
tue1801:00+17s239881 0.1 101379
04:00+16sse379986 0.1 1013187
07:00+16sse3599100 0.1 1014174
10:00+19sse3592100 0.0 1015357
13:00+22ssw5788100 1.6 1014743
16:00+17e5893100 11.1 1012190
19:00+20se5109390 11.1 1013662
22:00+18se61198100 3.8 1013451
19 may, wed
wed1901:00+18sse61499100 11.1 1012524
04:00+19se61397100 7.5 1010625
07:00+16s51297100 16.1 1014504
10:00+18sse51193100 0.3 1015537
13:00+20s61082100 0.3 1016749
16:00+23s6973100 0.0 10151057
19:00+21s5108280 0.0 1015527
22:00+18sse615887 0.0 1017589
20 may, thu
thu2001:00+18sse71693100 0.3 1017545
04:00+18sse61297100 1.2 1017595
07:00+17sse51397100 1.2 1019796
10:00+21s61086100 0.1 1020853
13:00+25s6966100 0.2 10201593
16:00+26s5966100 0.0 10191652
19:00+23sse5118080 0.6 1019355
22:00+20sse6158275 0.3 1021555